COSMOS 2251 DEB

Satellite information

Favourite Embed

Satellite Type and Status

DEBRISIN ORBIT

Key statistics

Satellite COSMOS 2251 DEB at a glance.

Uptime

11868

Days in orbit

Revolutions

≈ 14.4

Per day

Orbit

LEO

Low Earth Orbit

Inclination

74.0

Latest

Satellite identification and parameters

Extended collection of information and parameters for COSMOS 2251 DEB.

Object identification

Identified? True

Debris? True

Object name: COSMOS 2251 DEB

International designator: 1993-036BNM

Object number (NORAD): 37532

Object ID (CCSDS): 37532

Country: COMMONWEALTH OF INDEPENDENT STATES (CIS)

Current information (Y/N): Y

RCS size: SMALL

Orbital parameters

Period: 99.833 minutes

Inclination: 74.0497 deg

SMA: 7128.701 km

Apoapsis: 761.922 km

Periapsis: 739.209 km

RAAN: 218.1872 deg

Eccentricy: 0.00159305

Argument of periapsis: 319.0125 deg

Mean anomaly: 220.6834 deg

Mean motion: 14.42404906 rev/day

Mean motion (dot): 0.00001119 rev/day2

B* drag term: 0.00034566726 1/REarth

Two-line elements (TLE)

Creation date: Dec. 11, 2025, 7:14 p.m.

Reference frame: TEME

Reference center: EARTH

Epoch: Dec. 11, 2025, 9:48 a.m. UTC

TLE line 0: 0 COSMOS 2251 DEB

TLE line 1: 1 37532U 93036BNM 25345.40843230 .00001119 00000-0 34567-3 0 9994

TLE line 2: 2 37532 74.0497 218.1872 0015931 319.0125 220.6834 14.42404906848966

Live tracking on map

Real-time ground track for satellite COSMOS 2251 DEB.

In-orbit conjunctions

A list of the most updated potential collisions computed for object COSMOS 2251 DEB.

Target Orbit TCA Probability of collision Miss distance Type
DMSP 5D-2 F14 DEB SSO 2025-12-07 19:08:58 0.0003324867 108.0 (m) DEBRIS
THORAD AGENA D DEB LEO 2025-10-10 05:39:46 0.0001131825 793.0 (m) DEBRIS
CZ-6A DEB SSO 2025-04-11 13:11:05 0.000232025 416.0 (m) DEBRIS
IRIDIUM 69 LEO 2024-11-24 05:33:21 0.0006482783 178.0 (m) PAYLOAD

Associated space launch

Military communications satellite. Destroyed in a collision with Iridium 33.

COSMOS 2251 DEB was lifted into orbit during the mission ‘Kosmos-3M | Strela-2M 51’, on board a Kosmos-3M space rocket.

The launch took place on June 16, 1993, 4:17 a.m. from 132/1 (132L).

For more information about the launch, click the button.

Launch to space Kosmos-3M | Strela-2M 51
Kosmos-3M | Strela-2M 51

Agency: N/A

Status: Launch Successful

Launch date: June 16, 1993, 4:17 a.m. UTC

Rocket: Kosmos-3M

Launch pad: 132/1 (132L)

Location: Plesetsk Cosmodrome, Russian Federation

...

Latest news about this satellite

There are no fresh news available about this satellite. Check back as we update our databases every day.


Newsletter sign-up

Weekly statistics, charts and insights to help you stay on top of the space industry.